Location: Broletto
(44.6000°N, 10.5833°E)
Time: 02:27:42
(UTC+00:00)

DMSP B5D2-2 - Pass Details

Date: 18 April 2021
Orbit: 790 x 806 km, 98.3° (Epoch: 07 May)

Event Time Altitude Azimuth Distance (km) Brightness Sun altitude
Rises 18:50:36 0° 12° (NNE) 3,306 7.5 -8.2°
Reaches altitude 10° 18:52:55 10° 12° (NNE) 2,374 6.7 -8.6°
Maximum altitude 18:58:11 82° 286° (WNW) 811 4.2 -9.4°
Drops below altitude 10° 19:03:25 10° 199° (SSW) 2,368 6.5 -10.2°
Sets 19:05:44 0° 198° (SSW) 3,296 7.2 -10.6°
